カタログに戻る

CZ-6A DEB

運用中SSO
NORAD 55891·DEBRIS·🇨🇳 China

打ち上げ Nov 11, 2022 から Taiyuan Satellite Launch Center

Loading…

次のパス (今後24時間)

TLE

最新Source: Space-Track

元期: Sep 13, 2026, 21:31 UTC

1 55891U 22151AAP 26256.89699338  .00000302  00000-0  19560-3 0  9994
2 55891  98.8553 251.2254 0061268 115.0083 245.7466 14.09117760191933

AllMySatでCZ-6A DEBをリアルタイム追跡

Download on the App Store